カタログに戻る

AUREOLE 1

運用中科学LEO
NORAD 5729·PAYLOAD·🇫🇷 France

打ち上げ Dec 27, 1971 から Plesetsk Cosmodrome

Loading…

次のパス (今後24時間)

TLE

最新Source: Space-Track

元期: Sep 14, 2026, 14:13 UTC

1 05729U 71119A   26257.59289035  .00002641  00000-0  17899-3 0  9995
2 05729  73.9466 290.7631 0701020 113.9649 253.6493 14.00482094654224

AllMySatでAUREOLE 1をリアルタイム追跡

Download on the App Store